FW4018 Weather Reports


Display with metric or nautical units.
time (UTC)temp
F
wind
direction
speed
MPH
gust
MPH
rain 1hr
in
rain 24hr
in
rain mn
in
humidity
%
barometer
mb
20260508131516 82 39 2.0 5.0 0.00 0.00 0.00 37 1017.6
20260508130516 82 344 1.0 5.0 0.00 0.00 0.00 37 1017.7
20260508125536 82 38 2.0 5.0 0.00 0.00 0.00 37 1017.8
20260508124516 82 9 2.0 6.0 0.00 0.00 0.00 37 1017.9
20260508123516 81 332 2.0 7.0 0.00 0.00 0.00 37 1018.0
20260508122516 82 318 2.0 7.0 0.00 0.00 0.00 36 1018.0
20260508121516 82 332 2.0 6.0 0.00 0.00 0.00 35 1018.1
20260508120516 82 333 2.0 6.0 0.00 0.00 0.00 36 1018.1
20260508115516 82 322 2.0 6.0 0.00 0.00 0.00 34 1018.3
20260508114516 82 60 2.0 5.0 0.00 0.00 0.00 35 1018.4
20260508113516 82 39 2.0 7.0 0.00 0.00 0.00 36 1018.5
20260508112516 81 330 2.0 5.0 0.00 0.00 0.00 37 1018.6
20260508111516 80 64 2.0 5.0 0.00 0.00 0.00 39 1018.6
20260508110517 79 341 1.0 3.0 0.00 0.00 0.00 41 1018.7
20260508105518 78 70 3.0 6.0 0.00 0.00 0.00 41 1018.7
20260508104536 78 20 2.0 5.0 0.00 0.00 0.00 41 1018.7
20260508103521 77 337 2.0 6.0 0.00 0.00 0.00 43 1018.9
20260508102516 76 344 2.0 7.0 0.00 0.00 0.00 44 1018.9
20260508101517 76 31 1.0 5.0 0.00 0.00 0.00 46 1019.0
20260508100516 75 59 2.0 4.0 0.00 0.00 0.00 47 1019.0
20260508095557 75 329 2.0 6.0 0.00 0.00 0.00 45 1019.2
20260508094516 74 7 2.0 6.0 0.00 0.00 0.00 47 1019.3
20260508093516 73 2 2.0 4.0 0.00 0.00 0.00 49 1019.3
20260508092516 73 15 2.0 6.0 0.00 0.00 0.00 50 1019.4
20260508091516 72 338 2.0 7.0 0.00 0.00 0.00 51 1019.5
20260508090516 72 322 3.0 7.0 0.00 0.00 0.00 52 1019.5
20260508085516 71 350 2.0 5.0 0.00 0.00 0.00 57 1019.6
20260508084516 70 345 2.0 4.0 0.00 0.00 0.00 59 1019.6
20260508083556 70 34 2.0 5.0 0.00 0.00 0.00 58 1019.7
20260508082516 69 19 1.0 5.0 0.00 0.00 0.00 64 1019.7
20260508081516 68 28 1.0 4.0 0.00 0.00 0.00 67 1019.8
20260508080516 67 338 2.0 5.0 0.00 0.00 0.00 72 1019.7
20260508075536 67 358 1.0 3.0 0.00 0.00 0.00 75 1019.8
20260508074516 66 356 1.0 4.0 0.00 0.00 0.00 76 1019.8
20260508073516 65 320 2.0 4.0 0.00 0.00 0.00 76 1019.8
20260508072516 65 307 1.0 3.0 0.00 0.00 0.00 75 1019.7
20260508071516 64 332 1.0 4.0 0.00 0.00 0.00 77 1019.7
20260508070517 64 314 1.0 4.0 0.00 0.00 0.00 79 1019.7
20260508065537 63 315 1.0 3.0 0.00 0.00 0.00 81 1019.8
20260508064516 63 348 1.0 4.0 0.00 0.00 0.00 82 1019.7
20260508063536 62 311 1.0 5.0 0.00 0.00 0.00 91 1019.6
20260508062516 61 189 0.0 2.0 0.00 0.00 0.00 93 1019.6
20260508061516 61 314 1.0 2.0 0.00 0.00 0.00 93 1019.7
20260508060516 60 183 0.0 1.0 0.00 0.00 0.00 97 1019.7
20260508055516 60 234 0.0 2.0 0.00 0.00 0.00 99 1019.9
20260508054516 59 57 0.0 1.0 0.00 0.00 0.00 100 1020.0
20260508053516 58 205 0.0 2.0 0.00 0.00 0.00 100 1020.1
20260508052537 57 180 1.0 3.0 0.00 0.00 0.00 100 1020.0
20260508051516 56 260 1.0 3.0 0.00 0.00 0.00 100 1019.9
20260508050516 56 311 1.0 3.0 0.00 0.00 0.00 100 1019.8
20260508045516 55 304 2.0 3.0 0.00 0.00 0.00 100 1019.8
20260508044516 54 313 1.0 4.0 0.00 0.00 0.00 100 1019.9
20260508043516 54 267 1.0 3.0 0.00 0.00 0.00 100 1019.9
20260508042516 53 309 1.0 2.0 0.00 0.00 0.00 100 1019.8
20260508041516 52 316 1.0 2.0 0.00 0.00 0.00 100 1019.8
20260508040516 51 314 0.0 1.0 0.00 0.00 0.00 100 1019.9
20260508035557 51 330 0.0 1.0 0.00 0.00 0.00 100 1020.0
20260508034516 50 264 0.0 0.0 0.00 0.00 0.00 100 1020.1
20260508033536 50 0.0 0.0 0.00 0.00 0.00 100 1020.2
20260508032517 50 258 0.0 0.0 0.00 0.00 0.00 100 1020.0
20260508031516 49 0.0 0.0 0.00 0.00 0.00 100 1020.1
20260508030517 49 0.0 0.0 0.00 0.00 0.00 100 1020.2
20260508025536 49 0.0 0.0 0.00 0.00 0.00 100 1020.0
20260508024516 49 0.0 0.0 0.00 0.00 0.00 100 1019.9
20260508023516 49 0.0 0.0 0.00 0.00 0.00 100 1019.8
20260508022556 49 0.0 0.0 0.00 0.00 0.00 100 1019.8
20260508021517 49 0.0 0.0 0.00 0.00 0.00 100 1019.7
20260508015557 49 0.0 0.0 0.00 0.00 0.00 100 1019.5
20260508014516 50 0.0 0.0 0.00 0.00 0.00 100 1019.4
20260508013517 50 0.0 0.0 0.00 0.00 0.00 100 1019.4
20260508012537 50 0.0 0.0 0.00 0.00 0.00 100 1019.4
20260508011556 50 0.0 0.0 0.00 0.00 0.00 100 1019.4
20260508010516 50 0.0 0.0 0.00 0.00 0.00 100 1019.4
20260508005517 51 0.0 0.0 0.00 0.00 0.00 100 1019.4
20260508004517 51 0.0 0.0 0.00 0.00 0.00 100 1019.5
20260508003517 51 0.0 0.0 0.00 0.00 0.00 100 1019.5
20260508002516 51 81 0.0 0.0 0.00 0.00 0.00 100 1019.3
20260508001517 52 0.0 0.0 0.00 0.00 0.00 100 1019.2
20260508000537 52 0.0 0.0 0.00 0.00 0.00 100 1019.2
20260507235536 52 0.0 0.0 0.00 0.00 0.00 100 1019.2
20260507234516 52 267 0.0 1.0 0.00 0.00 0.00 100 1019.2
20260507233517 52 230 0.0 1.0 0.00 0.00 0.00 100 1019.1
20260507232516 52 257 0.0 0.0 0.00 0.00 0.00 100 1019.0
20260507231517 52 276 0.0 1.0 0.00 0.00 0.00 100 1018.9
20260507230516 52 310 0.0 1.0 0.00 0.00 0.00 100 1018.7
20260507225516 52 296 0.0 1.0 0.00 0.00 0.00 100 1018.7
20260507224536 52 229 0.0 0.0 0.00 0.00 0.00 100 1018.9
20260507223536 53 286 0.0 1.0 0.00 0.00 0.00 100 1019.0
20260507222516 53 0.0 0.0 0.00 0.00 0.00 100 1019.0
20260507221516 53 46 0.0 0.0 0.00 0.00 0.00 100 1019.0
20260507220517 53 0.0 0.0 0.00 0.00 0.00 100 1019.1
20260507215516 54 295 0.0 0.0 0.00 0.00 0.00 100 1019.3
20260507214537 54 0.0 0.0 0.00 0.00 0.00 100 1019.3
20260507213517 54 7 0.0 0.0 0.00 0.00 0.00 100 1019.1
20260507212517 55 51 0.0 0.0 0.00 0.00 0.00 100 1019.1
20260507211516 55 45 0.0 1.0 0.00 0.00 0.00 100 1019.1
20260507210537 55 337 0.0 1.0 0.00 0.00 0.00 100 1019.2
20260507205516 55 73 0.0 0.0 0.00 0.00 0.00 100 1019.3
20260507204516 56 68 0.0 1.0 0.00 0.00 0.00 100 1019.6
20260507203537 56 63 0.0 2.0 0.00 0.00 0.00 100 1019.6
20260507202516 56 46 1.0 4.0 0.00 0.00 0.00 100 1019.6
20260507201517 57 48 0.0 0.0 0.00 0.00 0.00 99 1019.5
20260507200516 57 51 0.0 1.0 0.00 0.00 0.00 100 1019.4
20260507195517 57 44 0.0 1.0 0.00 0.00 0.00 99 1019.3
20260507194517 58 50 0.0 2.0 0.00 0.00 0.00 97 1019.1
20260507193535 58 53 1.0 2.0 0.00 0.00 0.00 97 1019.2
20260507192517 58 55 1.0 3.0 0.00 0.00 0.00 96 1019.2
20260507191517 58 58 1.0 3.0 0.00 0.00 0.00 95 1019.2
20260507190516 59 20 0.0 1.0 0.00 0.00 0.00 93 1019.1
20260507185517 59 54 1.0 3.0 0.00 0.00 0.00 92 1019.0
20260507184536 59 55 1.0 3.0 0.00 0.00 0.00 91 1018.9
20260507183515 60 53 1.0 3.0 0.00 0.00 0.00 89 1019.0
20260507181516 60 63 2.0 5.0 0.00 0.00 0.00 88 1018.9
20260507175516 61 62 1.0 4.0 0.00 0.00 0.00 84 1018.8
20260507174516 62 77 1.0 3.0 0.00 0.00 0.00 82 1018.7
20260507173516 62 79 1.0 3.0 0.00 0.00 0.00 81 1018.7
20260507172517 62 84 1.0 3.0 0.00 0.00 0.00 80 1018.5
20260507171517 63 64 1.0 6.0 0.00 0.00 0.00 79 1018.4
20260507170516 63 61 1.0 4.0 0.00 0.00 0.00 78 1018.2
20260507165535 64 65 1.0 3.0 0.00 0.00 0.00 75 1018.1
20260507164536 65 67 0.0 2.0 0.00 0.00 0.00 73 1018.0
20260507163515 65 63 2.0 6.0 0.00 0.00 0.00 71 1017.8
20260507162516 66 58 1.0 4.0 0.00 0.00 0.00 69 1017.9
20260507161516 67 61 1.0 4.0 0.00 0.00 0.00 68 1017.8
20260507160516 67 70 1.0 2.0 0.00 0.01 0.00 66 1017.7
20260507155516 68 64 1.0 5.0 0.00 0.01 0.00 64 1017.6
20260507154516 68 59 2.0 6.0 0.00 0.01 0.00 63 1017.5
20260507153516 69 54 2.0 5.0 0.00 0.01 0.00 61 1017.5
20260507152516 69 51 2.0 4.0 0.00 0.01 0.00 59 1017.5
20260507151515 70 52 2.0 5.0 0.00 0.01 0.00 56 1017.5
20260507150516 71 56 2.0 4.0 0.00 0.01 0.00 54 1017.6
20260507145516 73 57 1.0 4.0 0.00 0.01 0.00 51 1017.6
20260507144516 74 57 2.0 4.0 0.00 0.01 0.00 49 1017.6
20260507143516 75 42 1.0 4.0 0.00 0.01 0.00 48 1017.7
20260507142515 76 58 2.0 5.0 0.00 0.01 0.00 47 1017.7
20260507141536 77 60 2.0 5.0 0.00 0.01 0.00 47 1017.8
20260507140556 77 46 1.0 5.0 0.00 0.01 0.00 46 1017.9
20260507135515 78 35 1.0 6.0 0.00 0.01 0.00 46 1017.9
20260507134515 77 65 1.0 5.0 0.00 0.01 0.00 47 1018.0
20260507133516 77 56 1.0 3.0 0.00 0.01 0.00 46 1018.0
20260507132516 76 66 1.0 5.0 0.00 0.01 0.00 50 1018.1